WGN142 MUHA-MMUN

Flight info

Callsign WGN142
Flight time 1h 3m
Altitude 34000
Route EPMAR4A MUPKI UB879 NOSAT NOSAT1B
Aircraft MD11/H-SDE1E2E3FGHIJ2J3J4J5M1RWXY/LB1D1

Departure

Time 2026-05-03 21:27
Airport José Martí International Airport (MUHA)

Arrival

Time 2026-05-03 22:30
Airport Cancún International Airport (MMUN)
Time Latitude Longitude Altitude Speed Heading
2026-05-03 20:49 22.99929 -82.39956 220 ft 0 kts 324°
2026-05-03 21:09 22.99914 -82.39943 220 ft 4 kts 308°
2026-05-03 21:09 22.99903 -82.39923 217 ft 4 kts 270°
2026-05-03 21:10 22.99908 -82.39899 219 ft 4 kts 237°
2026-05-03 21:10 22.99920 -82.39880 220 ft 0 kts 233°
2026-05-03 21:14 22.99912 -82.39892 221 ft 6 kts 233°
2026-05-03 21:15 22.99877 -82.39943 217 ft 9 kts 234°
2026-05-03 21:15 22.99845 -82.39991 219 ft 7 kts 234°
2026-05-03 21:15 22.99818 -82.40031 217 ft 8 kts 234°
2026-05-03 21:15 22.99769 -82.40072 215 ft 10 kts 203°
2026-05-03 21:16 22.99692 -82.40089 213 ft 11 kts 190°
2026-05-03 21:16 22.99651 -82.40123 213 ft 7 kts 232°
2026-05-03 21:16 22.99608 -82.40186 213 ft 15 kts 234°
2026-05-03 21:16 22.99537 -82.40293 220 ft 17 kts 234°
2026-05-03 21:17 22.99472 -82.40390 214 ft 15 kts 234°
2026-05-03 21:17 22.99434 -82.40447 217 ft 13 kts 234°
2026-05-03 21:17 22.99368 -82.40547 216 ft 13 kts 234°
2026-05-03 21:17 22.99308 -82.40638 215 ft 17 kts 234°
2026-05-03 21:18 22.99234 -82.40750 216 ft 20 kts 234°
2026-05-03 21:18 22.99156 -82.40869 214 ft 18 kts 234°
2026-05-03 21:18 22.99088 -82.40972 216 ft 15 kts 234°
2026-05-03 21:18 22.99030 -82.41058 209 ft 13 kts 234°
2026-05-03 21:19 22.98982 -82.41130 218 ft 11 kts 234°
2026-05-03 21:19 22.98943 -82.41187 216 ft 8 kts 234°
2026-05-03 21:19 22.98914 -82.41231 213 ft 6 kts 234°
2026-05-03 21:19 22.98893 -82.41262 213 ft 6 kts 234°
2026-05-03 21:20 22.98853 -82.41323 216 ft 14 kts 234°
2026-05-03 21:20 22.98790 -82.41419 214 ft 18 kts 234°
2026-05-03 21:20 22.98711 -82.41539 212 ft 21 kts 234°
2026-05-03 21:20 22.98622 -82.41674 212 ft 21 kts 234°
2026-05-03 21:21 22.98541 -82.41797 216 ft 19 kts 234°
2026-05-03 21:21 22.98469 -82.41901 216 ft 16 kts 233°
2026-05-03 21:21 22.98409 -82.41991 216 ft 13 kts 234°
2026-05-03 21:21 22.98360 -82.42066 211 ft 11 kts 234°
2026-05-03 21:22 22.98321 -82.42126 217 ft 8 kts 234°
2026-05-03 21:22 22.98292 -82.42169 215 ft 6 kts 234°
2026-05-03 21:22 22.98265 -82.42210 213 ft 9 kts 234°
2026-05-03 21:22 22.98221 -82.42278 216 ft 13 kts 234°
2026-05-03 21:23 22.98158 -82.42373 215 ft 17 kts 234°
2026-05-03 21:23 22.98092 -82.42474 216 ft 15 kts 234°
2026-05-03 21:23 22.98040 -82.42547 219 ft 7 kts 224°
2026-05-03 21:23 22.98007 -82.42564 217 ft 4 kts 193°
2026-05-03 21:24 22.97990 -82.42564 214 ft 1 kts 174°
2026-05-03 21:24 22.97989 -82.42563 216 ft 0 kts 170°
2026-05-03 21:24 22.97974 -82.42556 212 ft 5 kts 156°
2026-05-03 21:24 22.97929 -82.42524 214 ft 11 kts 141°
2026-05-03 21:25 22.97901 -82.42464 213 ft 9 kts 91°
2026-05-03 21:25 22.97934 -82.42389 213 ft 12 kts 53°
2026-05-03 21:25 22.97940 -82.42381 216 ft 0 kts 53°
2026-05-03 21:26 22.97948 -82.42369 214 ft 15 kts 53°
2026-05-03 21:26 22.98206 -82.41984 215 ft 110 kts 54°
2026-05-03 21:26 22.98824 -82.41051 218 ft 189 kts 54°
2026-05-03 21:26 22.99652 -82.39802 638 ft 212 kts 52°
2026-05-03 21:27 23.00608 -82.38470 1170 ft 237 kts 49°
2026-05-03 21:27 23.01737 -82.37047 1527 ft 259 kts 46°
2026-05-03 21:27 23.03006 -82.35506 1820 ft 286 kts 46°
2026-05-03 21:27 23.04312 -82.33932 3173 ft 254 kts 55°
2026-05-03 21:28 23.05263 -82.32342 4565 ft 260 kts 59°
2026-05-03 21:28 23.06250 -82.30547 5007 ft 284 kts 59°
2026-05-03 21:28 23.07294 -82.28698 5917 ft 290 kts 58°
2026-05-03 21:28 23.08384 -82.26857 6819 ft 295 kts 57°
2026-05-03 21:29 23.09527 -82.24997 7719 ft 298 kts 56°
2026-05-03 21:29 23.10693 -82.23151 8581 ft 301 kts 55°
2026-05-03 21:29 23.11917 -82.21249 9457 ft 305 kts 53°
2026-05-03 21:29 23.13287 -82.19512 10179 ft 310 kts 40°
2026-05-03 21:30 23.15216 -82.18295 10279 ft 335 kts 13°
2026-05-03 21:30 23.17602 -82.18138 10419 ft 357 kts 349°
2026-05-03 21:30 23.20021 -82.18893 10873 ft 367 kts 336°
2026-05-03 21:30 23.22341 -82.20074 11693 ft 368 kts 328°
2026-05-03 21:31 23.24423 -82.21684 12491 ft 368 kts 315°
2026-05-03 21:31 23.26085 -82.23796 13263 ft 369 kts 300°
2026-05-03 21:31 23.27122 -82.26339 13981 ft 370 kts 283°
2026-05-03 21:31 23.27399 -82.29113 14629 ft 371 kts 266°
2026-05-03 21:32 23.27020 -82.31892 15259 ft 373 kts 257°
2026-05-03 21:32 23.26367 -82.34636 15901 ft 377 kts 254°
2026-05-03 21:32 23.25644 -82.37390 16533 ft 380 kts 254°
2026-05-03 21:32 23.24930 -82.40137 17156 ft 383 kts 255°
2026-05-03 21:33 23.24228 -82.42940 17756 ft 386 kts 255°
2026-05-03 21:33 23.23540 -82.45782 18328 ft 390 kts 256°
2026-05-03 21:33 23.22864 -82.48642 18861 ft 392 kts 256°
2026-05-03 21:33 23.22191 -82.51529 19371 ft 394 kts 256°
2026-05-03 21:34 23.21519 -82.54431 19888 ft 397 kts 256°
2026-05-03 21:34 23.20843 -82.57354 20383 ft 399 kts 256°
2026-05-03 21:34 23.20165 -82.60291 20882 ft 401 kts 256°
2026-05-03 21:34 23.19484 -82.63236 21389 ft 403 kts 256°
2026-05-03 21:35 23.18798 -82.66201 21904 ft 406 kts 256°
2026-05-03 21:35 23.18116 -82.69147 22401 ft 408 kts 256°
2026-05-03 21:35 23.17419 -82.72151 22941 ft 411 kts 256°
2026-05-03 21:35 23.16719 -82.75171 23469 ft 413 kts 256°
2026-05-03 21:36 23.16012 -82.78214 23949 ft 416 kts 256°
2026-05-03 21:36 23.15304 -82.81255 24498 ft 416 kts 256°
2026-05-03 21:36 23.14592 -82.84315 25003 ft 418 kts 256°
2026-05-03 21:36 23.13878 -82.87380 25553 ft 420 kts 256°
2026-05-03 21:37 23.13157 -82.90471 26035 ft 422 kts 256°
2026-05-03 21:37 23.12433 -82.93573 26508 ft 425 kts 256°
2026-05-03 21:37 23.11706 -82.96688 26978 ft 427 kts 256°
2026-05-03 21:37 23.10970 -82.99832 27444 ft 429 kts 256°
2026-05-03 21:38 23.10243 -83.02940 27888 ft 432 kts 256°
2026-05-03 21:38 23.09499 -83.06113 28345 ft 434 kts 256°
2026-05-03 21:38 23.08753 -83.09297 28789 ft 437 kts 256°
2026-05-03 21:38 23.07998 -83.12510 29235 ft 439 kts 256°
2026-05-03 21:39 23.07240 -83.15736 29668 ft 441 kts 256°
2026-05-03 21:39 23.06478 -83.18960 30161 ft 441 kts 256°
2026-05-03 21:39 23.05707 -83.22198 30475 ft 443 kts 256°
2026-05-03 21:39 23.04934 -83.25444 30785 ft 445 kts 256°
2026-05-03 21:40 23.04159 -83.28706 31149 ft 445 kts 256°
2026-05-03 21:40 23.03387 -83.31961 31524 ft 444 kts 256°
2026-05-03 21:40 23.02619 -83.35204 31924 ft 443 kts 256°
2026-05-03 21:40 23.01861 -83.38406 32298 ft 442 kts 256°
2026-05-03 21:41 23.01096 -83.41634 32666 ft 441 kts 256°
2026-05-03 21:41 23.00333 -83.44855 33035 ft 440 kts 256°
2026-05-03 21:41 22.99569 -83.48072 33385 ft 439 kts 256°
2026-05-03 21:41 22.98807 -83.51282 33721 ft 438 kts 256°
2026-05-03 21:42 22.98045 -83.54485 33949 ft 438 kts 256°
2026-05-03 21:42 22.97288 -83.57668 33976 ft 435 kts 256°
2026-05-03 21:42 22.95764 -83.64063 34007 ft 438 kts 256°
2026-05-03 21:43 22.94236 -83.70465 34007 ft 438 kts 256°
2026-05-03 21:43 22.92702 -83.76875 34004 ft 438 kts 256°
2026-05-03 21:44 22.91169 -83.83269 34005 ft 438 kts 256°
2026-05-03 21:44 22.89634 -83.89661 34002 ft 438 kts 256°
2026-05-03 21:45 22.88100 -83.96035 33999 ft 435 kts 256°
2026-05-03 21:45 22.86582 -84.02332 34001 ft 434 kts 256°
2026-05-03 21:46 22.85039 -84.08673 34003 ft 434 kts 256°
2026-05-03 21:46 22.83493 -84.15006 33997 ft 434 kts 256°
2026-05-03 21:47 22.81953 -84.21338 33999 ft 434 kts 256°
2026-05-03 21:47 22.80415 -84.27668 34001 ft 434 kts 256°
2026-05-03 21:48 22.78881 -84.33972 34002 ft 429 kts 256°
2026-05-03 21:48 22.77366 -84.40186 33998 ft 428 kts 256°
2026-05-03 21:49 22.75839 -84.46438 34002 ft 428 kts 256°
2026-05-03 21:49 22.74311 -84.52683 33996 ft 429 kts 256°
2026-05-03 21:50 22.73037 -84.57883 33995 ft 428 kts 256°
2026-05-03 21:50 22.71257 -84.65130 33996 ft 428 kts 256°
2026-05-03 21:51 22.69973 -84.70349 33997 ft 427 kts 256°
2026-05-03 21:51 22.68447 -84.76546 33994 ft 430 kts 256°
2026-05-03 21:52 22.66896 -84.82827 33996 ft 431 kts 256°
2026-05-03 21:52 22.65343 -84.89107 33996 ft 431 kts 256°
2026-05-03 21:53 22.63780 -84.95375 33996 ft 431 kts 256°
2026-05-03 21:53 22.62206 -85.01640 33996 ft 431 kts 255°
2026-05-03 21:54 22.59788 -85.07578 33995 ft 435 kts 239°
2026-05-03 21:54 22.56162 -85.12853 33994 ft 438 kts 235°
2026-05-03 21:55 22.52391 -85.18030 33993 ft 438 kts 236°
2026-05-03 21:55 22.48717 -85.23222 33991 ft 437 kts 236°
2026-05-03 21:56 22.45061 -85.28476 33993 ft 437 kts 236°
2026-05-03 21:56 22.41410 -85.33740 33993 ft 436 kts 236°
2026-05-03 21:57 22.37804 -85.38931 33983 ft 432 kts 236°
2026-05-03 21:57 22.35983 -85.41556 33438 ft 437 kts 236°
2026-05-03 21:57 22.34160 -85.44178 32756 ft 437 kts 236°
2026-05-03 21:58 22.32329 -85.46810 32163 ft 440 kts 236°
2026-05-03 21:58 22.30484 -85.49461 31605 ft 443 kts 236°
2026-05-03 21:58 22.28626 -85.52128 31052 ft 445 kts 236°
2026-05-03 21:58 22.26762 -85.54803 30500 ft 448 kts 236°
2026-05-03 21:59 22.24882 -85.57500 29930 ft 451 kts 236°
2026-05-03 21:59 22.22991 -85.60208 29269 ft 453 kts 236°
2026-05-03 21:59 22.21093 -85.62927 28604 ft 455 kts 236°
2026-05-03 21:59 22.19185 -85.65664 27951 ft 457 kts 236°
2026-05-03 22:00 22.17293 -85.68379 27304 ft 459 kts 235°
2026-05-03 22:00 22.15372 -85.71137 26681 ft 460 kts 235°
2026-05-03 22:00 22.13456 -85.73887 26029 ft 457 kts 235°
2026-05-03 22:00 22.11549 -85.76622 25393 ft 454 kts 235°
2026-05-03 22:01 22.09657 -85.79334 24764 ft 450 kts 235°
2026-05-03 22:01 22.07783 -85.82019 24139 ft 446 kts 235°
2026-05-03 22:01 22.05916 -85.84694 23499 ft 449 kts 235°
2026-05-03 22:01 22.04039 -85.87384 22820 ft 447 kts 235°
2026-05-03 22:02 22.02179 -85.90047 22376 ft 444 kts 235°
2026-05-03 22:02 22.00330 -85.92691 22204 ft 432 kts 235°
2026-05-03 22:02 21.98568 -85.95204 22064 ft 409 kts 235°
2026-05-03 22:02 21.96778 -85.97483 21942 ft 388 kts 229°
2026-05-03 22:03 21.94868 -85.99468 21879 ft 379 kts 225°
2026-05-03 22:03 21.92899 -86.01350 21811 ft 377 kts 224°
2026-05-03 22:03 21.90917 -86.03199 21765 ft 377 kts 224°
2026-05-03 22:03 21.88938 -86.05043 21693 ft 376 kts 224°
2026-05-03 22:04 21.86962 -86.06891 21629 ft 376 kts 224°
2026-05-03 22:04 21.84996 -86.08739 21563 ft 375 kts 224°
2026-05-03 22:04 21.83034 -86.10589 21506 ft 375 kts 224°
2026-05-03 22:04 21.81096 -86.12421 21448 ft 375 kts 224°
2026-05-03 22:05 21.79137 -86.14273 21386 ft 374 kts 224°
2026-05-03 22:05 21.77181 -86.16122 21324 ft 374 kts 224°
2026-05-03 22:05 21.75225 -86.17973 21045 ft 374 kts 224°
2026-05-03 22:05 21.73268 -86.19822 20646 ft 374 kts 224°
2026-05-03 22:06 21.71314 -86.21668 20352 ft 372 kts 224°
2026-05-03 22:06 21.69388 -86.23486 20228 ft 361 kts 224°
2026-05-03 22:06 21.67541 -86.25226 20111 ft 344 kts 224°
2026-05-03 22:06 21.65772 -86.26892 19993 ft 333 kts 224°
2026-05-03 22:07 21.64060 -86.28505 19925 ft 331 kts 224°
2026-05-03 22:07 21.62331 -86.30137 19871 ft 330 kts 224°
2026-05-03 22:07 21.60610 -86.31762 19814 ft 330 kts 224°
2026-05-03 22:07 21.58885 -86.33390 19756 ft 329 kts 224°
2026-05-03 22:08 21.57161 -86.35016 19700 ft 329 kts 224°
2026-05-03 22:08 21.55442 -86.36638 19612 ft 330 kts 224°
2026-05-03 22:08 21.53674 -86.38248 19026 ft 335 kts 220°
2026-05-03 22:08 21.51784 -86.39729 18427 ft 337 kts 217°
2026-05-03 22:09 21.49848 -86.41142 17760 ft 334 kts 216°
2026-05-03 22:09 21.47936 -86.42509 17125 ft 324 kts 216°
2026-05-03 22:09 21.46067 -86.43840 16524 ft 324 kts 216°
2026-05-03 22:10 21.42304 -86.46534 15370 ft 327 kts 216°
2026-05-03 22:10 21.40429 -86.47879 15017 ft 321 kts 216°
2026-05-03 22:10 21.38593 -86.49195 14662 ft 314 kts 216°
2026-05-03 22:10 21.36779 -86.50498 14301 ft 313 kts 216°
2026-05-03 22:11 21.34978 -86.51791 14086 ft 309 kts 216°
2026-05-03 22:11 21.33210 -86.53063 14015 ft 311 kts 216°
2026-05-03 22:11 21.31413 -86.54356 13990 ft 311 kts 217°
2026-05-03 22:11 21.29593 -86.55665 13986 ft 325 kts 216°
2026-05-03 22:12 21.27589 -86.57115 13367 ft 370 kts 217°
2026-05-03 22:12 21.25357 -86.58727 12683 ft 396 kts 216°
2026-05-03 22:12 21.23054 -86.60378 12326 ft 394 kts 216°
2026-05-03 22:12 21.20864 -86.61938 12166 ft 359 kts 216°
2026-05-03 22:13 21.18877 -86.63350 12030 ft 326 kts 216°
2026-05-03 22:13 21.17069 -86.64637 11907 ft 300 kts 216°
2026-05-03 22:13 21.15400 -86.65829 11804 ft 279 kts 217°
2026-05-03 22:13 21.13801 -86.66976 11681 ft 273 kts 217°
2026-05-03 22:14 21.12235 -86.68100 11564 ft 271 kts 217°
2026-05-03 22:14 21.11523 -86.68612 11508 ft 271 kts 217°
2026-05-03 22:15 21.09980 -86.69724 11298 ft 273 kts 217°
2026-05-03 22:15 21.08542 -86.71061 10833 ft 275 kts 233°
2026-05-03 22:15 21.07715 -86.72889 10289 ft 275 kts 262°
2026-05-03 22:16 21.07829 -86.74916 9758 ft 276 kts 290°
2026-05-03 22:16 21.08687 -86.76751 9180 ft 278 kts 302°
2026-05-03 22:16 21.09753 -86.78482 8631 ft 274 kts 304°
2026-05-03 22:16 21.10762 -86.80054 8180 ft 237 kts 304°
2026-05-03 22:17 21.11650 -86.81436 7694 ft 215 kts 304°
2026-05-03 22:17 21.12488 -86.82745 7334 ft 210 kts 303°
2026-05-03 22:17 21.13308 -86.84034 6993 ft 209 kts 303°
2026-05-03 22:17 21.14121 -86.85317 6652 ft 208 kts 303°
2026-05-03 22:18 21.14929 -86.86597 6303 ft 207 kts 303°
2026-05-03 22:18 21.15726 -86.87862 5942 ft 207 kts 303°
2026-05-03 22:18 21.16538 -86.89155 5579 ft 206 kts 303°
2026-05-03 22:18 21.17337 -86.90431 5241 ft 206 kts 303°
2026-05-03 22:19 21.18125 -86.91689 4944 ft 206 kts 303°
2026-05-03 22:19 21.18922 -86.92963 4623 ft 205 kts 302°
2026-05-03 22:19 21.19715 -86.94232 4304 ft 205 kts 302°
2026-05-03 22:19 21.20507 -86.95499 3978 ft 203 kts 303°
2026-05-03 22:20 21.21287 -86.96748 3661 ft 201 kts 303°
2026-05-03 22:20 21.22065 -86.97995 3345 ft 201 kts 303°
2026-05-03 22:20 21.22839 -86.99237 3154 ft 200 kts 303°
2026-05-03 22:20 21.23615 -87.00481 3064 ft 201 kts 303°
2026-05-03 22:21 21.24390 -87.01727 3006 ft 201 kts 303°
2026-05-03 22:21 21.25164 -87.02975 2992 ft 201 kts 303°
2026-05-03 22:21 21.25938 -87.04223 2993 ft 201 kts 303°
2026-05-03 22:21 21.26711 -87.05470 2990 ft 201 kts 303°
2026-05-03 22:22 21.27483 -87.06716 2998 ft 201 kts 303°
2026-05-03 22:22 21.28188 -87.08003 2975 ft 200 kts 291°
2026-05-03 22:22 21.28379 -87.09464 2973 ft 200 kts 260°
2026-05-03 22:22 21.27775 -87.10759 2999 ft 199 kts 225°
2026-05-03 22:23 21.26705 -87.11706 3014 ft 201 kts 216°
2026-05-03 22:23 21.25571 -87.12583 2999 ft 201 kts 215°
2026-05-03 22:23 21.24416 -87.13429 2981 ft 201 kts 209°
2026-05-03 22:23 21.23097 -87.13859 2966 ft 200 kts 179°
2026-05-03 22:24 21.21804 -87.13405 2994 ft 199 kts 141°
2026-05-03 22:24 21.20872 -87.12313 3022 ft 200 kts 127°
2026-05-03 22:24 21.20047 -87.11107 3001 ft 201 kts 126°
2026-05-03 22:24 21.19239 -87.09887 2994 ft 201 kts 125°
2026-05-03 22:25 21.18443 -87.08666 2978 ft 200 kts 124°
2026-05-03 22:25 21.17675 -87.07473 2960 ft 182 kts 124°
2026-05-03 22:25 21.16971 -87.06372 3005 ft 177 kts 124°
2026-05-03 22:25 21.16277 -87.05286 2982 ft 176 kts 124°
2026-05-03 22:26 21.15588 -87.04201 2997 ft 176 kts 124°
2026-05-03 22:26 21.14900 -87.03114 2997 ft 176 kts 124°
2026-05-03 22:26 21.14215 -87.02027 2997 ft 176 kts 124°
2026-05-03 22:26 21.13529 -87.00939 2944 ft 177 kts 124°
2026-05-03 22:27 21.12845 -86.99853 2561 ft 174 kts 123°
2026-05-03 22:27 21.12179 -86.98792 2257 ft 173 kts 123°
2026-05-03 22:27 21.11511 -86.97728 1957 ft 171 kts 123°
2026-05-03 22:27 21.10848 -86.96669 1677 ft 171 kts 123°
2026-05-03 22:28 21.10187 -86.95614 1426 ft 170 kts 123°
2026-05-03 22:28 21.09529 -86.94561 1403 ft 170 kts 124°
2026-05-03 22:28 21.08870 -86.93508 1345 ft 171 kts 124°
2026-05-03 22:28 21.08209 -86.92455 974 ft 169 kts 124°
2026-05-03 22:29 21.07560 -86.91418 787 ft 166 kts 123°
2026-05-03 22:29 21.06909 -86.90396 577 ft 165 kts 124°
2026-05-03 22:29 21.06265 -86.89384 367 ft 165 kts 124°
2026-05-03 22:29 21.05615 -86.88358 145 ft 159 kts 125°
2026-05-03 22:30 21.05079 -86.87510 32 ft 118 kts 123°
2026-05-03 22:30 21.04717 -86.86928 29 ft 59 kts 124°
2026-05-03 22:30 21.04561 -86.86679 29 ft 34 kts 124°
2026-05-03 22:30 21.04450 -86.86511 28 ft 19 kts 133°
2026-05-03 22:31 21.04356 -86.86425 27 ft 17 kts 145°
2026-05-03 22:31 21.04276 -86.86378 26 ft 10 kts 154°
2026-05-03 22:31 21.04221 -86.86350 29 ft 8 kts 153°
2026-05-03 22:31 21.04155 -86.86314 29 ft 13 kts 153°
2026-05-03 22:32 21.04106 -86.86277 29 ft 9 kts 130°
2026-05-03 22:32 21.04059 -86.86232 28 ft 6 kts 161°
2026-05-03 22:32 21.04029 -86.86235 27 ft 5 kts 194°
2026-05-03 22:32 21.03952 -86.86278 27 ft 15 kts 213°
2026-05-03 22:33 21.03868 -86.86336 27 ft 13 kts 213°
2026-05-03 22:33 21.03797 -86.86386 30 ft 11 kts 213°
2026-05-03 22:33 21.03737 -86.86428 28 ft 9 kts 213°
2026-05-03 22:33 21.03693 -86.86460 28 ft 7 kts 214°
2026-05-03 22:34 21.03660 -86.86484 28 ft 5 kts 214°
2026-05-03 22:34 21.03612 -86.86517 28 ft 10 kts 213°
2026-05-03 22:34 21.03558 -86.86556 28 ft 8 kts 214°
2026-05-03 22:34 21.03521 -86.86584 28 ft 5 kts 213°
2026-05-03 22:35 21.03495 -86.86602 30 ft 3 kts 213°
2026-05-03 22:35 21.03484 -86.86609 29 ft 2 kts 213°
2026-05-03 22:35 21.03472 -86.86618 27 ft 4 kts 213°
2026-05-03 22:35 21.03437 -86.86642 30 ft 6 kts 213°
2026-05-03 22:36 21.03408 -86.86663 31 ft 4 kts 213°
2026-05-03 22:36 21.03390 -86.86676 28 ft 2 kts 213°
2026-05-03 22:36 21.03376 -86.86685 30 ft 5 kts 213°
2026-05-03 22:36 21.03351 -86.86716 30 ft 2 kts 253°
2026-05-03 22:37 21.03350 -86.86733 30 ft 5 kts 268°
2026-05-03 22:37 21.03356 -86.86764 29 ft 8 kts 288°
2026-05-03 22:37 21.03387 -86.86818 30 ft 8 kts 304°
2026-05-03 22:37 21.03412 -86.86858 30 ft 5 kts 304°
2026-05-03 22:38 21.03430 -86.86886 29 ft 3 kts 304°
2026-05-03 22:38 21.03458 -86.86930 29 ft 12 kts 304°
2026-05-03 22:38 21.03501 -86.86999 26 ft 10 kts 304°
2026-05-03 22:38 21.03535 -86.87054 27 ft 8 kts 299°
2026-05-03 22:39 21.03531 -86.87105 25 ft 6 kts 239°
2026-05-03 22:39 21.03525 -86.87165 27 ft 12 kts 281°
2026-05-03 22:39 21.03579 -86.87265 28 ft 17 kts 304°
2026-05-03 22:39 21.03639 -86.87359 28 ft 14 kts 304°
2026-05-03 22:40 21.03688 -86.87438 29 ft 12 kts 304°
2026-05-03 22:40 21.03727 -86.87501 29 ft 9 kts 303°
2026-05-03 22:40 21.03758 -86.87552 29 ft 7 kts 303°
2026-05-03 22:40 21.03781 -86.87590 29 ft 5 kts 303°
2026-05-03 22:41 21.03797 -86.87615 29 ft 3 kts 303°
2026-05-03 22:41 21.03823 -86.87657 29 ft 13 kts 304°
2026-05-03 22:41 21.03877 -86.87743 29 ft 10 kts 304°
2026-05-03 22:41 21.03910 -86.87796 29 ft 8 kts 304°
2026-05-03 22:42 21.03937 -86.87837 29 ft 6 kts 305°
2026-05-03 22:42 21.03955 -86.87866 29 ft 4 kts 305°
2026-05-03 22:42 21.03967 -86.87884 29 ft 6 kts 304°
2026-05-03 22:42 21.03998 -86.87932 29 ft 7 kts 305°
2026-05-03 22:43 21.04023 -86.87970 29 ft 5 kts 304°
2026-05-03 22:43 21.04037 -86.87993 29 ft 2 kts 303°
2026-05-03 22:43 21.04043 -86.88002 29 ft 1 kts 308°
2026-05-03 22:43 21.04056 -86.88009 30 ft 1 kts 344°
2026-05-03 22:44 21.04069 -86.88004 30 ft 2 kts 24°
2026-05-03 22:44 21.04092 -86.87989 30 ft 6 kts 30°
2026-05-03 22:44 21.04103 -86.87984 30 ft 3 kts 16°
2026-05-03 22:44 21.04114 -86.87989 30 ft 2 kts 336°
2026-05-03 22:45 21.04123 -86.88003 30 ft 3 kts 302°
2026-05-03 22:45 21.04136 -86.88022 29 ft 0 kts 306°